When you browse on this site, cookies collect data to enhance your experience and personalize the content and advertising you see.
Visit our Privacy Policy to learn more. By continuing to use the site, you agree to this use of cookies and data.
EN

Hourly Weather Abertillery

Today, 8 July, Wednesday

Time Temperature Precipitation Wind Pressure Humidity
00:00 +14°C° 0 mm 6 mps 741 mmHg 97%
01:00 +14°C° 0.5 mm 5 mps 740 mmHg 97%
02:00 +14°C° 0.5 mm 5 mps 740 mmHg 97%
03:00 +14°C° 0.5 mm 4 mps 740 mmHg 97%
04:00 +14°C° 0.6 mm 4 mps 740 mmHg 97%
05:00 +14°C° 0.6 mm 3 mps 740 mmHg 97%
06:00 +14°C° 0 mm 3 mps 740 mmHg 97%
07:00 +15°C° 0.2 mm 2 mps 740 mmHg 97%
08:00 +15°C° 0.2 mm 2 mps 740 mmHg 97%
09:00 +15°C° 0.2 mm 2 mps 740 mmHg 97%
10:00 +16°C° 0.1 mm 2 mps 740 mmHg 95%
11:00 +16°C° 0.1 mm 2 mps 740 mmHg 93%
12:00 +17°C° 0.1 mm 2 mps 741 mmHg 90%
13:00 +17°C° 0.1 mm 3 mps 741 mmHg 91%
14:00 +17°C° 0.1 mm 4 mps 741 mmHg 92%
15:00 +17°C° 0.1 mm 4 mps 741 mmHg 93%
16:00 +15°C° 0.3 mm 4 mps 740 mmHg 94%
17:00 +15°C° 0.3 mm 4 mps 740 mmHg 95%
18:00 +15°C° 0.3 mm 5 mps 740 mmHg 96%
19:00 +14°C° 0.4 mm 5 mps 740 mmHg 96%
20:00 +14°C° 0.4 mm 5 mps 740 mmHg 96%
21:00 +14°C° 0.4 mm 5 mps 740 mmHg 97%
22:00 +14°C° 0.2 mm 5 mps 739 mmHg 96%
23:00 +14°C° 0.2 mm 6 mps 739 mmHg 96%

Tomorrow, 9 July, Thursday

Time Temperature Precipitation Wind Pressure Humidity
00:00 +14°C° 0.2 mm 6 mps 739 mmHg 96%
01:00 +14°C° 0.5 mm 6 mps 738 mmHg 96%
02:00 +14°C° 0.5 mm 6 mps 738 mmHg 97%
03:00 +14°C° 0.5 mm 6 mps 738 mmHg 97%
04:00 +14°C° 0.3 mm 6 mps 738 mmHg 97%
05:00 +14°C° 0.3 mm 6 mps 737 mmHg 97%
06:00 +14°C° 0.3 mm 6 mps 737 mmHg 96%
07:00 +15°C° 0.1 mm 6 mps 737 mmHg 96%
08:00 +15°C° 0.1 mm 5 mps 738 mmHg 95%
09:00 +15°C° 0.1 mm 5 mps 738 mmHg 95%
10:00 +15°C° 0.1 mm 5 mps 738 mmHg 94%
11:00 +16°C° 0.1 mm 5 mps 738 mmHg 92%
12:00 +16°C° 0.1 mm 5 mps 738 mmHg 91%
13:00 +17°C° 0.1 mm 4 mps 739 mmHg 91%
14:00 +17°C° 0.1 mm 4 mps 739 mmHg 91%
15:00 +17°C° 0.1 mm 3 mps 739 mmHg 92%
16:00 +16°C° 0.1 mm 3 mps 739 mmHg 92%
17:00 +16°C° 0.1 mm 3 mps 738 mmHg 92%
18:00 +16°C° 0.1 mm 2 mps 738 mmHg 92%
19:00 +15°C° 0.1 mm 2 mps 739 mmHg 93%
20:00 +14°C° 0.1 mm 2 mps 739 mmHg 94%
21:00 +13°C° 0.1 mm 2 mps 740 mmHg 95%
22:00 +13°C° 0 mm 2 mps 740 mmHg 95%
23:00 +12°C° 0 mm 2 mps 740 mmHg 95%

Day after tomorrow, 10 July, Friday

Time Temperature Precipitation Wind Pressure Humidity
00:00 +12°C° 0 mm 2 mps 740 mmHg 95%
01:00 +10°C° 0 mm 2 mps 740 mmHg 95%
02:00 +9°C° 0 mm 2 mps 740 mmHg 95%
03:00 +9°C° 0 mm 2 mps 741 mmHg 95%
04:00 +9°C° 0 mm 2 mps 741 mmHg 93%
05:00 +9°C° 0 mm 2 mps 741 mmHg 91%
06:00 +10°C° 0 mm 2 mps 742 mmHg 90%
07:00 +11°C° 0 mm 3 mps 742 mmHg 83%
08:00 +12°C° 0 mm 5 mps 742 mmHg 76%
09:00 +13°C° 0 mm 6 mps 743 mmHg 70%
10:00 +14°C° 0.1 mm 6 mps 743 mmHg 69%
11:00 +14°C° 0.1 mm 6 mps 743 mmHg 68%
12:00 +15°C° 0.1 mm 7 mps 744 mmHg 67%
13:00 +15°C° 0.1 mm 7 mps 744 mmHg 67%
14:00 +15°C° 0.1 mm 7 mps 744 mmHg 67%
15:00 +15°C° 0.1 mm 7 mps 744 mmHg 67%
16:00 +14°C° 0 mm 6 mps 744 mmHg 69%
17:00 +14°C° 0 mm 6 mps 744 mmHg 72%
18:00 +13°C° 0 mm 6 mps 745 mmHg 74%
19:00 +12°C° 0 mm 5 mps 745 mmHg 79%
20:00 +11°C° 0 mm 4 mps 746 mmHg 84%
21:00 +9°C° 0 mm 3 mps 746 mmHg 89%
22:00 +9°C° 0 mm 3 mps 746 mmHg 90%
23:00 +8°C° 0 mm 2 mps 746 mmHg 91%

11 July, Saturday

Time Temperature Precipitation Wind Pressure Humidity
00:00 +8°C° 0 mm 2 mps 747 mmHg 91%
01:00 +7°C° 0 mm 2 mps 747 mmHg 91%
02:00 +8°C° 0 mm 1 mps 747 mmHg 92%
03:00 +8°C° 0 mm 1 mps 747 mmHg 92%
04:00 +9°C° 0 mm 1 mps 748 mmHg 91%
05:00 +10°C° 0 mm 1 mps 748 mmHg 90%
06:00 +11°C° 0 mm 1 mps 748 mmHg 89%
07:00 +12°C° 0 mm 2 mps 748 mmHg 83%
08:00 +14°C° 0 mm 2 mps 749 mmHg 78%
09:00 +14°C° 0 mm 3 mps 749 mmHg 72%
10:00 +16°C° 0 mm 3 mps 749 mmHg 69%
11:00 +17°C° 0 mm 3 mps 749 mmHg 65%
12:00 +18°C° 0 mm 3 mps 750 mmHg 62%
13:00 +18°C° 0 mm 3 mps 750 mmHg 63%
14:00 +18°C° 0 mm 3 mps 750 mmHg 64%
15:00 +18°C° 0 mm 4 mps 749 mmHg 65%
16:00 +17°C° 0 mm 4 mps 749 mmHg 68%
17:00 +17°C° 0 mm 3 mps 749 mmHg 71%
18:00 +16°C° 0 mm 3 mps 749 mmHg 74%
19:00 +15°C° 0 mm 2 mps 749 mmHg 78%
20:00 +13°C° 0 mm 2 mps 750 mmHg 82%
21:00 +11°C° 0 mm 1 mps 750 mmHg 86%
22:00 +10°C° 0 mm 1 mps 750 mmHg 86%
23:00 +10°C° 0 mm 1 mps 749 mmHg 85%

12 July, Sunday

Time Temperature Precipitation Wind Pressure Humidity
00:00 +9°C° 0 mm 1 mps 749 mmHg 84%
01:00 +9°C° 0 mm 1 mps 749 mmHg 84%
02:00 +8°C° 0 mm 1 mps 749 mmHg 83%
03:00 +8°C° 0 mm 1 mps 749 mmHg 83%
04:00 +8°C° 0 mm 0 mps 749 mmHg 82%
05:00 +9°C° 0 mm 0 mps 749 mmHg 81%
06:00 +10°C° 0 mm 0 mps 749 mmHg 81%
07:00 +12°C° 0 mm 0 mps 749 mmHg 76%
08:00 +14°C° 0 mm 1 mps 750 mmHg 71%
09:00 +16°C° 0 mm 1 mps 750 mmHg 67%
10:00 +16°C° 0 mm 1 mps 750 mmHg 64%
11:00 +17°C° 0 mm 2 mps 750 mmHg 61%
12:00 +18°C° 0 mm 2 mps 750 mmHg 58%
13:00 +18°C° 0 mm 2 mps 750 mmHg 59%
14:00 +18°C° 0 mm 3 mps 749 mmHg 60%
15:00 +18°C° 0 mm 3 mps 749 mmHg 61%
16:00 +18°C° 0 mm 3 mps 749 mmHg 65%
17:00 +17°C° 0 mm 3 mps 749 mmHg 69%
18:00 +17°C° 0 mm 3 mps 749 mmHg 73%
19:00 +15°C° 0 mm 2 mps 749 mmHg 77%
20:00 +13°C° 0 mm 2 mps 749 mmHg 81%
21:00 +12°C° 0 mm 1 mps 748 mmHg 85%
22:00 +11°C° 0 mm 1 mps 748 mmHg 86%
23:00 +11°C° 0 mm 1 mps 748 mmHg 86%

13 July, Monday

Time Temperature Precipitation Wind Pressure Humidity
00:00 +10°C° 0 mm 1 mps 748 mmHg 86%
01:00 +10°C° 0 mm 1 mps 747 mmHg 85%
02:00 +10°C° 0 mm 1 mps 747 mmHg 83%
03:00 +10°C° 0 mm 1 mps 747 mmHg 82%
04:00 +11°C° 0 mm 1 mps 747 mmHg 82%
05:00 +12°C° 0 mm 1 mps 746 mmHg 82%
06:00 +12°C° 0 mm 1 mps 746 mmHg 83%
07:00 +13°C° 0 mm 2 mps 746 mmHg 82%
08:00 +13°C° 0 mm 3 mps 746 mmHg 81%
09:00 +14°C° 0 mm 3 mps 746 mmHg 80%
10:00 +14°C° 0 mm 4 mps 746 mmHg 79%
11:00 +15°C° 0 mm 4 mps 746 mmHg 78%
12:00 +16°C° 0 mm 5 mps 746 mmHg 78%
13:00 +16°C° 0 mm 5 mps 746 mmHg 78%
14:00 +16°C° 0 mm 5 mps 745 mmHg 78%
15:00 +16°C° 0 mm 5 mps 745 mmHg 78%
16:00 +16°C° 0.1 mm 5 mps 744 mmHg 80%
17:00 +16°C° 0.1 mm 5 mps 744 mmHg 82%
18:00 +15°C° 0.1 mm 5 mps 744 mmHg 84%
19:00 +14°C° 0 mm 4 mps 744 mmHg 88%
20:00 +13°C° 0 mm 3 mps 744 mmHg 91%
21:00 +11°C° 0 mm 3 mps 744 mmHg 95%
22:00 +12°C° 0 mm 2 mps 744 mmHg 95%
23:00 +10°C° 0 mm 2 mps 744 mmHg 95%
Show more